�������C�����ː����j�^�v���󋵏��
Date,Time,Cs137(Bq/L),Cs134(Bq/L),�S��(Bq/L)
2017/08/13,00:00,0.81,ND,ND
2017/08/13,00:10,0.82,ND,ND
2017/08/13,00:20,0.79,0.027,ND
2017/08/13,00:30,0.82,ND,ND
2017/08/13,00:40,0.75,0.028,ND
2017/08/13,00:50,0.75,0.037,ND
2017/08/13,01:00,0.75,0.038,ND
2017/08/13,01:10,0.73,0.040,ND
2017/08/13,01:20,0.74,0.036,ND
2017/08/13,01:30,0.80,0.062,ND
2017/08/13,01:40,0.80,0.052,ND
2017/08/13,01:50,0.80,0.043,ND
2017/08/13,02:00,0.81,0.037,ND
2017/08/13,02:10,0.75,ND,ND
2017/08/13,02:20,0.80,0.043,ND
2017/08/13,02:30,0.81,0.035,ND
2017/08/13,02:40,0.83,0.030,ND
2017/08/13,02:50,0.83,0.034,ND
2017/08/13,03:00,0.82,0.037,ND
2017/08/13,03:10,0.81,0.037,ND
2017/08/13,03:20,0.79,0.033,ND
2017/08/13,03:30,0.74,0.049,ND
2017/08/13,03:40,0.70,0.054,ND
2017/08/13,03:50,0.69,0.048,ND
2017/08/13,04:00,0.69,0.046,ND
2017/08/13,04:10,0.69,0.051,ND
2017/08/13,04:20,0.69,0.036,ND
2017/08/13,04:30,0.67,ND,ND
2017/08/13,04:40,0.73,0.027,ND
2017/08/13,04:50,0.73,0.040,ND
2017/08/13,05:00,0.72,0.039,ND
2017/08/13,05:10,0.69,ND,ND
2017/08/13,05:20,0.67,0.048,ND
2017/08/13,05:30,0.66,0.031,ND
2017/08/13,05:40,0.61,0.035,ND
2017/08/13,05:50,0.60,ND,ND
2017/08/13,06:00,0.53,0.028,ND
2017/08/13,06:10,0.55,ND,ND
2017/08/13,06:20,0.56,ND,ND
2017/08/13,06:30,0.54,ND,ND
2017/08/13,06:40,0.54,0.025,ND
2017/08/13,06:50,0.56,0.028,ND
2017/08/13,07:00,0.56,0.027,ND
2017/08/13,07:10,0.56,0.028,ND
2017/08/13,07:20,0.55,0.036,ND
2017/08/13,07:30,0.57,0.031,ND
2017/08/13,07:40,0.63,ND,ND
2017/08/13,07:50,0.60,0.028,ND
2017/08/13,08:00,0.59,ND,ND
2017/08/13,08:10,0.60,ND,ND
2017/08/13,08:20,0.60,ND,ND
2017/08/13,08:30,0.63,ND,ND
2017/08/13,08:40,0.62,0.026,ND
2017/08/13,08:50,0.62,0.026,ND
2017/08/13,09:00,0.65,ND,ND
2017/08/13,09:10,0.65,ND,ND
2017/08/13,09:20,0.62,0.030,ND
2017/08/13,09:30,0.64,ND,ND
2017/08/13,09:40,0.62,ND,ND
2017/08/13,09:50,0.60,0.030,ND
2017/08/13,10:00,0.60,0.033,ND
2017/08/13,10:10,0.62,0.040,ND
2017/08/13,10:20,0.67,0.062,ND
2017/08/13,10:30,0.65,0.028,ND
2017/08/13,10:40,0.66,0.027,ND
2017/08/13,10:50,0.69,ND,ND
2017/08/13,11:00,0.67,0.027,ND
2017/08/13,11:10,0.72,0.056,ND
2017/08/13,11:20,0.70,0.029,ND
2017/08/13,11:30,0.71,0.032,ND
2017/08/13,11:40,0.70,0.034,ND
2017/08/13,11:50,0.73,0.025,ND
2017/08/13,12:00,0.74,0.025,ND
2017/08/13,12:10,0.73,0.025,ND
2017/08/13,12:20,0.75,ND,ND
2017/08/13,12:30,0.78,ND,ND
2017/08/13,12:40,0.77,0.026,ND
2017/08/13,12:50,0.82,0.058,ND
2017/08/13,13:00,0.82,ND,ND
2017/08/13,13:10,0.80,ND,ND
2017/08/13,13:20,0.75,0.026,ND
2017/08/13,13:30,0.72,0.027,ND
2017/08/13,13:40,0.75,ND,ND
2017/08/13,13:50,0.72,ND,ND
2017/08/13,14:00,0.70,ND,ND
2017/08/13,14:10,0.70,ND,ND
2017/08/13,14:20,0.70,ND,ND
2017/08/13,14:30,0.68,ND,ND
2017/08/13,14:40,0.65,0.036,ND
2017/08/13,14:50,0.65,0.026,ND
2017/08/13,15:00,0.66,ND,ND
2017/08/13,15:10,0.62,ND,ND
2017/08/13,15:20,0.61,ND,ND
2017/08/13,15:30,0.61,ND,ND
2017/08/13,15:40,0.62,ND,ND
2017/08/13,15:50,0.55,ND,ND
2017/08/13,16:00,0.60,0.026,ND
2017/08/13,16:10,0.65,ND,ND
2017/08/13,16:20,0.60,0.028,ND
2017/08/13,16:30,0.57,0.031,ND
2017/08/13,16:40,0.60,ND,ND
2017/08/13,16:50,0.53,ND,ND
2017/08/13,17:00,0.50,ND,ND
2017/08/13,17:10,0.50,ND,ND
2017/08/13,17:20,0.53,0.027,ND
2017/08/13,17:30,0.55,ND,ND
2017/08/13,17:40,0.57,0.032,ND
2017/08/13,17:50,0.59,0.036,ND
2017/08/13,18:00,0.63,0.037,ND
2017/08/13,18:10,0.66,0.035,ND
2017/08/13,18:20,0.68,0.034,ND
2017/08/13,18:30,0.70,0.034,ND
2017/08/13,18:40,0.67,ND,ND
2017/08/13,18:50,0.67,ND,ND
2017/08/13,19:00,0.69,ND,ND
2017/08/13,19:10,0.72,0.027,ND
2017/08/13,19:20,0.69,0.033,ND
2017/08/13,19:30,0.71,0.030,ND
2017/08/13,19:40,0.70,0.033,ND
2017/08/13,19:50,0.71,ND,ND
2017/08/13,20:00,0.72,ND,ND
2017/08/13,20:10,0.71,ND,ND
2017/08/13,20:20,0.74,ND,ND
2017/08/13,20:30,0.73,ND,ND
2017/08/13,20:40,0.74,ND,ND
2017/08/13,20:50,0.74,0.048,ND
2017/08/13,21:00,0.76,0.043,ND
2017/08/13,21:10,0.78,0.044,ND
2017/08/13,21:20,0.78,0.048,ND
2017/08/13,21:30,0.77,0.059,ND
2017/08/13,21:40,0.76,0.050,ND
2017/08/13,21:50,0.76,0.043,ND
2017/08/13,22:00,0.75,0.054,ND
2017/08/13,22:10,0.76,0.052,ND
2017/08/13,22:20,0.75,0.049,ND
2017/08/13,22:30,0.76,0.046,ND
2017/08/13,22:40,0.78,0.044,ND
2017/08/13,22:50,0.81,0.039,ND
2017/08/13,23:00,0.80,0.042,ND
2017/08/13,23:10,0.86,ND,ND
2017/08/13,23:20,0.74,0.025,ND
2017/08/13,23:30,0.79,ND,ND
2017/08/13,23:40,0.83,0.060,ND
2017/08/13,23:50,0.80,0.070,ND
